Theta_e
302 302 301 301 301 302 297 290 282 291 292 280 281 279 279 280 279 281 278 277 275 273 274 272 271 271 273 278 277 269 272 265 262 266 268 269 267 265 262 255 255 258 254 255
302 301 301 301 301 301 293 286 285 292 289 275 277 278 278 279 278 277 277 275 277 277 272 269 271 272 278 279 275 270 271 262 259 264 264 267 264 264 265 262 257 253 255 256
300 300 301 301 301 300 294 286 279 284 285 282 277 276 277 277 280 278 278 276 277 274 272 274 271 272 276 278 276 280 277 265 262 260 260 269 266 263 263 262 253 252 253 255
300 300 300 300 300 299 293 287 281 280 276 278 278 278 277 275 275 279 279 275 275 273 270 271 271 274 274 276 278 276 273 263 266 268 269 270 267 261 259 255 253 253 252 253
299 300 300 299 299 298 291 284 282 283 280 280 278 278 275 275 276 277 276 274 275 274 268 270 269 273 273 272 274 273 273 262 269 265 269 269 264 264 259 255 254 253 252 253
299 298 298 298 298 297 289 290 288 283 279 277 275 275 276 276 278 278 278 277 276 274 275 277 277 278 277 276 270 269 269 264 264 261 267 268 263 263 261 255 254 254 251 255
297 297 296 297 296 296 292 290 288 280 274 276 276 277 277 277 277 276 278 279 276 277 280 279 276 275 276 276 274 274 265 265 268 263 264 258 259 266 267 258 255 256 256 256
296 296 296 296 296 295 293 292 287 282 275 277 277 278 278 277 278 276 278 280 280 281 274 272 270 269 270 271 273 271 271 267 263 262 261 261 261 262 262 259 256 256 256 258
296 295 295 295 294 294 292 290 291 285 278 275 280 277 277 273 274 274 276 280 280 277 274 271 265 264 267 266 266 272 271 269 267 264 259 258 261 264 265 262 255 262 260 259
295 294 294 294 294 294 292 289 291 285 278 279 278 276 275 278 275 272 274 276 275 277 270 267 266 265 269 264 264 265 265 263 263 263 262 257 262 265 266 255 255 265 264 261
294 293 293 294 294 293 291 288 291 286 280 279 279 277 274 274 274 269 272 273 272 273 266 266 268 267 267 261 260 259 259 256 259 261 259 255 263 264 259 259 265 265 264 264
293 293 293 293 292 292 291 284 289 289 282 277 281 279 279 278 276 273 273 272 274 274 269 270 271 267 266 263 254 259 257 255 255 256 256 261 264 262 264 264 263 264 264 265
292 292 292 292 291 291 290 285 284 284 279 278 277 274 279 280 279 280 271 276 278 272 273 273 269 262 265 260 257 256 259 261 260 259 261 262 264 265 266 266 264 266 266 266
292 292 291 290 291 290 289 281 283 283 279 273 271 279 275 279 280 279 281 278 278 277 274 269 265 261 265 258 258 257 258 261 258 257 260 261 263 263 264 264 265 265 265 265
291 290 290 290 290 289 285 282 281 282 278 273 271 275 276 277 275 275 276 276 275 272 267 263 261 264 262 262 259 255 259 256 255 254 259 258 260 261 262 260 262 262 263 262
290 289 288 289 291 289 284 278 280 279 282 275 269 274 272 274 276 273 272 273 272 269 266 263 262 265 264 257 254 258 260 261 260 258 261 260 261 259 256 256 258 260 259 258
289 289 288 287 286 279 274 270 275 283 282 275 269 269 272 272 276 273 272 271 269 268 264 262 261 262 263 257 253 259 261 262 261 263 260 259 257 256 255 256 256 260 257 256
289 288 288 287 286 282 275 275 280 281 274 272 265 264 268 271 269 268 273 268 267 266 263 263 261 262 260 253 257 259 261 262 262 262 260 256 255 256 257 258 259 259 258 256
290 286 284 278 274 272 273 280 279 275 272 263 263 259 260 269 269 272 270 270 262 267 261 260 262 257 252 256 257 259 260 259 260 260 260 260 261 260 260 261 260 260 259 261
286 280 274 268 270 279 278 272 268 268 267 267 261 264 260 266 265 266 266 264 263 256 260 264 257 254 257 258 260 260 260 261 261 258 259 261 261 261 262 260 261 261 261 261
276 271 268 270 278 271 267 262 260 261 256 263 262 262 260 267 261 263 265 260 262 254 258 258 254 252 256 258 258 259 261 263 263 262 263 263 261 261 263 263 264 265 264 262
274 272 273 271 267 262 257 256 259 257 255 261 259 261 263 265 267 263 262 258 258 251 261 255 251 255 256 259 258 261 263 264 264 264 264 264 264 264 263 264 264 265 265 265
272 268 261 261 259 253 251 249 251 253 259 261 260 259 262 264 265 259 259 255 254 262 254 251 252 256 258 258 262 263 264 264 264 263 264 264 264 265 264 263 264 264 263 264
264 257 252 254 251 255 256 256 257 260 260 260 260 259 258 260 256 256 250 256 257 249 247 249 254 254 257 261 262 262 262 263 262 263 263 263 263 263 263 264 264 263 262 264
257 257 252 254 261 261 260 261 261 263 262 261 258 258 259 254 250 256 252 248 247 251 249 253 258 258 260 261 262 261 261 261 260 261 260 261 261 262 262 263 263 262 263 263
259 259 255 260 258 258 259 259 259 262 260 262 259 252 248 248 250 248 248 245 248 252 255 258 260 258 259 260 261 261 262 262 261 262 262 263 263 262 261 261 262 262 263 261
257 259 263 261 259 259 260 260 260 262 260 253 253 246 246 251 246 248 252 250 254 258 260 262 261 261 260 258 260 262 263 262 262 261 262 262 263 261 260 260 263 263 263 261
Wind_Speed
10 12 10 13 15 18 8 3 3 3 4 3 4 4 2 1 3 4 4 2 5 7 8 4 5 6 6 6 7 6 7 2 3 9 1 2 1 2 5 5 7 2 4 6
10 10 8 11 12 10 5 5 4 3 2 4 5 3 4 4 4 5 3 3 5 5 4 4 4 4 5 12 8 4 3 4 2 3 2 4 1 2 3 3 3 6 2 5
8 10 10 9 8 8 4 4 4 3 4 0 4 8 10 9 6 3 7 5 5 6 8 7 5 6 5 7 6 11 8 4 6 8 9 4 4 4 4 4 1 3 5 7
9 7 8 8 7 7 3 3 2 3 4 5 9 7 10 13 13 5 6 4 9 7 9 11 13 11 12 10 10 9 4 4 6 11 12 0 2 6 6 5 6 5 6 2
7 7 8 8 8 4 2 4 3 1 5 11 12 10 9 14 12 9 11 11 12 9 4 8 11 13 4 8 6 7 5 5 8 8 11 9 6 10 8 5 2 4 3 5
5 5 7 6 4 5 2 2 1 1 5 8 10 9 12 12 7 8 8 12 10 11 10 6 6 8 8 5 3 3 4 3 3 8 9 7 7 6 8 4 3 5 1 4
6 7 9 9 7 3 2 2 1 2 8 9 10 15 14 11 13 14 15 12 5 3 4 5 3 6 7 9 10 7 5 2 5 4 3 8 2 6 5 7 4 3 4 5
7 8 9 9 10 11 2 1 2 3 5 9 11 12 5 11 10 8 5 4 3 4 1 2 7 4 5 9 14 8 6 3 3 6 5 4 2 4 2 3 1 2 1 5
8 9 11 12 11 12 4 2 4 2 4 4 5 7 10 6 3 5 4 4 3 2 2 5 4 6 5 5 2 2 3 2 4 3 4 3 4 5 3 3 2 2 4 4
9 11 11 11 10 8 3 3 1 2 4 2 4 3 3 3 3 3 4 1 3 3 2 5 5 6 2 5 4 4 3 2 6 7 4 4 5 5 2 1 3 5 5 3
11 11 11 11 9 7 1 3 2 2 2 3 5 4 4 4 4 2 3 3 3 3 2 2 3 2 2 6 4 4 4 3 4 4 2 2 9 5 2 1 3 5 5 6
10 11 10 7 8 5 3 2 4 5 2 3 6 8 9 7 6 4 4 4 3 2 2 2 2 1 4 2 3 5 3 2 2 4 3 2 4 5 1 1 3 5 4 5
11 12 8 9 8 5 6 3 3 2 3 3 1 3 5 7 6 4 3 2 4 3 2 2 3 7 5 4 3 4 2 3 2 3 4 5 5 7 8 6 4 5 7 7
12 11 5 7 6 6 6 3 4 1 3 1 3 3 4 6 8 10 8 4 2 3 5 4 5 4 6 4 3 5 3 5 5 2 4 0 6 7 6 8 8 8 8 8
11 6 4 6 7 12 7 3 4 6 3 3 4 7 7 9 9 13 14 10 5 3 4 5 4 3 4 2 4 5 5 3 3 2 4 2 2 3 5 5 5 6 6 7
9 3 4 4 13 8 3 4 1 10 4 2 3 3 8 9 7 14 14 8 7 4 4 4 3 3 1 4 4 3 4 3 0 2 3 2 5 1 2 2 4 5 3 3
4 13 16 18 19 10 6 3 8 10 2 2 4 4 4 12 1 3 4 10 4 4 4 4 3 4 5 4 4 5 7 3 3 3 3 2 4 3 6 3 5 6 3 3
18 20 19 17 17 11 5 4 17 6 4 5 4 4 3 10 5 2 3 3 3 6 3 3 3 3 4 5 4 5 6 7 6 7 2 5 5 5 6 3 3 4 3 5
16 13 11 5 6 4 3 7 14 7 7 5 5 6 4 9 5 3 2 2 4 3 4 3 3 4 6 4 5 5 6 4 6 8 5 4 3 5 5 4 5 3 4 3
11 1 4 4 3 11 4 6 5 7 7 5 4 7 4 6 6 4 3 3 3 3 3 3 4 3 2 3 4 2 5 6 4 4 7 6 6 6 7 5 4 3 3 4
3 4 4 1 9 4 5 6 6 6 5 5 5 6 6 4 4 3 4 2 3 4 3 3 3 3 3 4 3 4 4 4 4 3 4 4 4 5 7 7 7 6 5 3
7 9 5 5 7 6 9 5 5 5 4 4 6 7 4 4 3 3 4 3 4 4 2 4 3 1 4 5 5 4 4 6 7 6 8 7 10 6 6 8 7 7 6 7
4 7 8 7 6 14 9 8 5 4 5 5 7 7 3 4 5 3 4 6 3 1 4 3 1 2 4 4 7 8 7 7 8 9 9 9 10 9 8 8 7 7 6 6
8 7 10 7 6 5 3 5 5 4 4 7 7 4 2 3 5 3 6 2 4 5 4 1 1 2 4 6 7 7 9 9 7 9 9 9 9 9 9 9 7 6 6 8
7 7 8 5 4 3 2 3 4 3 4 5 4 3 3 4 5 4 5 8 5 4 2 2 4 3 4 6 8 7 8 7 5 5 5 6 7 7 7 7 6 6 8 8
7 9 4 4 2 5 4 3 3 2 3 2 1 2 5 5 3 7 5 5 3 3 2 4 4 4 4 4 6 8 8 8 6 6 6 7 7 7 7 7 7 8 7 6
7 4 5 5 3 5 5 4 6 4 1 2 3 7 2 2 5 4 3 1 3 4 5 5 4 4 5 5 6 7 8 7 7 6 7 7 8 6 7 8 9 6 5 6
Wind_Direction
347 337 343 358 357 350 346 288 290 163 167 250 211 224 77 180 246 191 274 264 279 272 283 293 251 226 173 138 159 191 199 234 277 274 20 317 313 165 135 129 289 293 190 269
350 3 341 343 350 5 323 313 271 182 179 260 268 122 199 200 242 226 218 249 226 320 295 299 281 286 175 170 185 188 166 240 289 240 17 330 200 147 116 106 94 229 216 275
348 353 342 340 359 352 320 294 308 167 203 181 285 308 310 309 169 275 269 278 299 282 264 254 242 235 217 172 220 225 179 188 200 249 259 147 197 142 124 141 137 287 231 301
342 353 11 16 351 346 306 241 283 42 313 314 326 323 308 286 288 220 303 236 232 255 281 288 280 256 236 173 225 223 195 220 250 267 272 223 121 147 155 168 212 161 250 331
347 360 7 7 4 20 269 305 303 51 293 288 277 281 280 281 282 277 266 252 262 281 248 223 265 285 280 259 197 183 198 234 264 267 274 235 174 164 168 169 239 284 324 282
9 1 346 18 74 45 357 274 360 296 270 288 287 268 265 281 270 270 265 278 260 264 268 325 306 255 254 228 237 235 202 181 209 254 268 269 218 198 171 151 114 149 265 248
345 341 339 333 325 200 225 285 4 271 273 278 282 292 293 276 266 275 267 272 256 288 332 297 311 258 235 244 240 196 197 230 253 265 298 246 177 38 98 117 137 72 360 330
341 345 348 339 331 308 259 266 199 250 269 281 287 309 321 304 287 302 303 261 356 333 324 254 244 196 204 222 232 227 222 207 243 244 232 108 134 44 51 172 127 105 1 330
342 337 331 327 315 314 325 271 182 248 277 223 329 288 277 290 313 278 254 94 111 96 244 243 252 238 184 147 34 327 281 191 231 219 229 232 67 97 83 59 145 38 56 354
335 333 327 317 323 328 333 269 237 214 253 34 8 355 351 308 300 261 288 104 202 201 245 256 257 238 261 172 153 167 177 216 234 258 256 85 14 0 26 125 203 356 28 16
335 327 320 326 336 329 40 286 162 253 276 39 36 31 12 339 6 326 4 297 229 189 239 247 245 255 97 82 33 354 45 349 35 314 156 173 347 304 315 326 341 47 8 9
326 323 330 337 329 358 359 281 47 356 235 52 79 84 64 50 14 307 289 289 281 354 306 330 19 70 49 168 100 6 75 44 53 27 77 110 23 72 145 353 5 19 2 338
327 323 334 339 335 27 37 54 349 306 243 137 137 21 36 25 334 269 283 317 9 74 263 10 61 74 346 37 42 126 74 6 81 201 82 39 59 60 33 17 14 6 0 353
323 328 333 333 60 67 77 62 335 286 302 188 79 52 40 4 360 3 214 281 63 62 31 57 43 63 12 47 106 66 353 327 355 74 66 343 73 44 16 357 13 12 351 355
322 341 326 321 141 123 107 116 63 19 325 5 132 138 34 39 30 30 31 42 46 30 57 41 46 47 60 55 79 41 355 355 358 29 4 297 49 6 8 353 1 349 339 342
342 18 354 322 138 156 173 193 87 2 344 245 131 111 24 9 55 50 38 31 45 52 70 73 61 318 30 78 73 358 3 12 78 309 314 296 279 179 4 332 326 306 346 317
72 88 82 77 75 66 60 66 304 321 311 346 139 92 46 350 315 32 73 49 44 62 75 57 54 13 47 46 64 3 357 359 10 344 330 330 18 277 296 277 281 305 278 280
124 118 110 106 102 82 49 3 16 5 76 34 28 0 57 12 328 55 9 65 48 33 84 51 56 39 55 65 16 3 353 342 29 348 331 210 254 310 302 269 275 319 304 284
121 130 119 67 29 42 344 14 47 29 43 75 44 355 352 343 345 6 46 43 70 60 59 31 67 48 45 348 349 6 356 349 320 322 310 326 301 298 315 310 331 318 298 304
129 123 48 60 19 308 338 14 24 28 25 41 38 3 351 332 326 26 31 38 58 65 46 78 78 82 129 344 346 354 321 315 341 354 343 339 338 332 320 305 281 269 276 291
48 64 65 22 345 49 37 45 34 6 34 24 347 2 332 353 337 346 7 50 17 69 13 66 74 63 344 332 327 305 314 330 328 314 304 312 304 308 320 325 334 336 334 310
80 97 83 36 27 25 62 20 19 38 29 10 340 335 332 309 318 344 356 63 42 66 326 59 66 10 312 346 315 316 337 338 335 347 334 330 327 327 320 314 322 324 328 322
63 49 48 32 351 39 44 3 343 356 2 352 335 329 335 331 359 28 26 54 56 130 43 66 94 317 340 310 334 340 337 342 346 344 331 332 325 327 326 321 312 314 314 313
56 55 37 57 16 32 6 341 334 320 305 328 322 311 349 337 23 1 66 337 33 43 49 52 338 309 312 337 336 336 331 336 337 320 323 326 323 316 314 312 313 311 306 306
62 47 49 48 30 28 307 318 289 344 328 325 327 321 49 344 48 25 29 27 42 38 348 304 314 305 327 327 336 333 328 319 302 299 291 286 285 284 287 293 301 299 294 295
63 42 45 12 14 8 3 334 326 349 301 260 242 354 50 17 56 41 10 59 28 322 313 295 307 313 305 312 318 306 295 299 301 304 307 312 317 315 306 305 289 278 270 273
53 43 33 50 20 2 351 355 343 291 19 18 45 49 267 318 42 31 24 341 272 294 301 314 322 319 306 285 293 308 313 314 307 306 315 310 301 292 292 287 283 281 275 258